TimeEST,TemperatureF,Dew PointF,Humidity,Sea Level PressureIn,VisibilityMPH,Wind Direction,Wind SpeedMPH,Gust SpeedMPH,PrecipitationIn,Events,Conditions,WindDirDegrees,DateUTC
12:44 AM,62.6,53.6,72,30.18,10.0,Calm,Calm,-,N/A,,Overcast,0,2012-12-05 05:44:00
12:53 AM,62.1,54.0,75,30.17,10.0,Variable,4.6,-,N/A,,Overcast,0,2012-12-05 05:53:00
1:53 AM,61.0,55.9,83,30.15,10.0,Calm,Calm,-,0.00,Rain,Light Rain,0,2012-12-05 06:53:00
2:53 AM,60.1,55.9,86,30.16,10.0,Calm,Calm,-,0.00,,Overcast,0,2012-12-05 07:53:00
3:31 AM,59.0,57.2,94,30.17,10.0,Calm,Calm,-,0.01,,Overcast,0,2012-12-05 08:31:00
3:53 AM,59.0,57.0,93,30.16,10.0,Calm,Calm,-,0.01,,Overcast,0,2012-12-05 08:53:00
4:18 AM,59.0,57.2,94,30.17,9.0,Calm,Calm,-,N/A,,Overcast,0,2012-12-05 09:18:00
4:35 AM,59.0,57.2,94,30.17,10.0,NE,5.8,-,N/A,,Overcast,50,2012-12-05 09:35:00
4:53 AM,57.0,52.0,83,30.17,10.0,NE,5.8,-,N/A,,Overcast,50,2012-12-05 09:53:00
5:53 AM,55.0,50.0,83,30.21,10.0,NNE,5.8,-,0.00,Rain,Light Rain,20,2012-12-05 10:53:00
6:53 AM,53.1,42.1,66,30.23,10.0,NE,5.8,-,0.00,,Overcast,40,2012-12-05 11:53:00
7:01 AM,53.6,41.0,62,30.24,10.0,NE,8.1,-,N/A,,Overcast,40,2012-12-05 12:01:00
7:53 AM,53.1,37.9,57,30.26,10.0,Variable,4.6,-,N/A,,Overcast,0,2012-12-05 12:53:00
9:53 AM,53.1,34.0,48,30.30,10.0,NE,5.8,-,N/A,,Overcast,50,2012-12-05 14:53:00
10:53 AM,54.0,35.1,49,30.30,10.0,Variable,5.8,-,N/A,,Overcast,0,2012-12-05 15:53:00
11:53 AM,55.9,35.1,45,30.28,10.0,Variable,4.6,-,N/A,,Overcast,0,2012-12-05 16:53:00
12:53 PM,59.0,35.1,41,30.25,10.0,ENE,5.8,-,N/A,,Partly Cloudy,70,2012-12-05 17:53:00
1:53 PM,60.1,32.0,35,30.22,10.0,NE,5.8,-,N/A,,Clear,50,2012-12-05 18:53:00
2:53 PM,62.1,30.0,30,30.21,10.0,NE,8.1,-,N/A,,Clear,50,2012-12-05 19:53:00
3:53 PM,61.0,30.9,32,30.20,10.0,East,3.5,-,N/A,,Clear,90,2012-12-05 20:53:00
4:53 PM,59.0,32.0,36,30.22,10.0,Variable,4.6,-,N/A,,Clear,0,2012-12-05 21:53:00
5:53 PM,55.0,32.0,42,30.23,10.0,Calm,Calm,-,N/A,,Clear,0,2012-12-05 22:53:00
6:53 PM,52.0,32.0,47,30.23,10.0,ENE,3.5,-,N/A,,Clear,60,2012-12-05 23:53:00
7:53 PM,46.9,34.0,61,30.23,10.0,Calm,Calm,-,N/A,,Clear,0,2012-12-06 00:53:00
8:53 PM,46.9,32.0,56,30.23,10.0,Calm,Calm,-,N/A,,Clear,0,2012-12-06 01:53:00
9:53 PM,44.1,33.1,65,30.22,10.0,Calm,Calm,-,N/A,,Clear,0,2012-12-06 02:53:00
10:53 PM,43.0,33.1,68,30.20,10.0,ENE,3.5,-,N/A,,Clear,70,2012-12-06 03:53:00
11:53 PM,41.0,34.0,76,30.19,10.0,Calm,Calm,-,N/A,,Clear,0,2012-12-06 04:53:00